Location: Brodeslavy
(49.9527°N, 13.5567°E)
Time: 16:33:23
(UTC+00:00)

SeaSat 1 - Pass Details

Date: 17 June 2025
Orbit: 738 x 740 km, 108.0° (Epoch: 20 July)

Event Time Altitude Azimuth Distance (km) Brightness Sun altitude
Exits shadow 23:01:31 22° 144° (SE) 1,564 3.6 -16.6°
Maximum altitude 23:04:41 83° 58° (ENE) 752 2.4 -16.6°
Drops below altitude 10° 23:09:36 10° 332° (NNW) 2,258 5.9 -16.6°
Sets 23:11:52 0° 331° (NNW) 3,186 6.8 -16.6°
